Regional Weather Roundup
Issued by NWS

Home | Current Version | Previous Version | Graphics & Text | Print | Product List | Glossary On
Versions: 1 2 3 4 5 6 7 8 9 10 11 12 13 14 15 16 17 18 19 20 21 22 23 24 25 26 27 28 29 30 31 32 33 34 35 36 37 38 39 40 41 42 43 44 45 46 47 48 49 50
000
ASUS43 KMKX 041221
RWRWI

WISCONSIN REGIONAL WEATHER ROUNDUP
NATIONAL WEATHER SERVICE MILWAUKEE/SULLIVAN WI
700 AM CDT FRI SEP 04 2015

NOTE: "FAIR" INDICATES FEW OR NO CLOUDS BELOW 12,000 FEET WITH NO
SIGNIFICANT WEATHER AND/OR OBSTRUCTIONS TO VISIBILITY.

WIZ001-002-006>008-014>016-023>028-041300-
NORTHWEST WISCONSIN

CITY           SKY/WX    TMP DP  RH WIND       PRES   REMARKS
SUPERIOR ARPT  CLOUDY    58  58  98 NE10      30.00S
6HR MIN TEMP:  55; 6HR MAX TEMP:  58;

ASHLAND        FOG       50  50 100 W3        30.03R VSB 1/4
6HR MIN TEMP:  48; 6HR MAX TEMP:  52;

HAYWARD        CLOUDY    67  61  81 VRB6      30.02R
6HR MIN TEMP:  58; 6HR MAX TEMP:  67;

SIREN          CLEAR     69  64  86 SE8       29.97R
6HR MIN TEMP:  69; 6HR MAX TEMP:  69;

CUMBERLAND     CLOUDY    66  63  88 SE6       30.00R
RICE LAKE      CLOUDY    67  63  85 E8        30.01S
6HR MIN TEMP:  64; 6HR MAX TEMP:  68;

CHETEK         CLOUDY    68  64  86 MISG      30.01R
6HR MIN TEMP:  66; 6HR MAX TEMP:  68;

LADYSMITH      PTCLDY    62  61  95 E3        30.05R
6HR MIN TEMP:  62; 6HR MAX TEMP:  65;

EAU CLAIRE     CLOUDY    69  64  84 E7        29.99R
6HR MIN TEMP:  69; 6HR MAX TEMP:  70;

MENOMONIE      CLEAR     67  65  94 E5        29.99R
6HR MIN TEMP:  67; 6HR MAX TEMP:  69;

NEW RICHMOND   CLEAR     67  64  88 SE7       29.96S
6HR MIN TEMP:  67; 6HR MAX TEMP:  70;

OSCEOLA        CLEAR     69  65  88 E8        29.98R
6HR MIN TEMP:  69; 6HR MAX TEMP:  71;

$$

WIZ003>005-009-010-017-018-041300-
NORTH CENTRAL WISCONSIN

CITY           SKY/WX    TMP DP  RH WIND       PRES   REMARKS
MANITOWISH WTR PTCLDY    54  54 100 CALM      30.07R FOG
6HR MIN TEMP:  52; 6HR MAX TEMP:  64;

ARBOR VITAE    CLEAR     57  56  97 CALM      30.07R
6HR MIN TEMP:  57; 6HR MAX TEMP:  63;

WOODRUFF       CLEAR     57  56  97 CALM      30.07R
6HR MIN TEMP:  57; 6HR MAX TEMP:  63;

RHINELANDER    CLEAR     58  57  97 CALM      30.09R FOG
6HR MIN TEMP:  56; 6HR MAX TEMP:  62;

EAGLE RIVER    FOG       54  54 100 CALM      30.07R VSB 1/2
6HR MIN TEMP:  52; 6HR MAX TEMP:  62;

LAND O LAKES   CLEAR     53  53 100 CALM      30.09S FOG
6HR MIN TEMP:  52; 6HR MAX TEMP:  58; 6HR PCP:  0.03;

PHILLIPS       CLEAR     58  58 100 CALM      30.04S
6HR MIN TEMP:  54; 6HR MAX TEMP:  63;

TOMAHAWK       FOG       52  52  97 CALM      30.06S VSB<1/4
6HR MIN TEMP:  51; 6HR MAX TEMP:  58;

MEDFORD        CLEAR     61  60  99 E6        30.05R
6HR MIN TEMP:  59; 6HR MAX TEMP:  62;

MERRILL        FOG       53  53 100 CALM      30.07R VSB 1/4
6HR MIN TEMP:  51; 6HR MAX TEMP:  58;

$$

WIZ029-030-035-036-043>047-041300-
CENTRAL WISCONSIN

CITY           SKY/WX    TMP DP  RH WIND       PRES   REMARKS
WAUSAU         CLEAR     60  59  96 CALM      30.04R FOG
6HR MIN TEMP:  60; 6HR MAX TEMP:  65;

MOSINEE        FOG       61  61 100 E6        30.05R VSB 1/16
MARSHFIELD     MOCLDY    64  60  87 E6        30.04R FOG
6HR MIN TEMP:  62; 6HR MAX TEMP:  67;

STEVENS POINT  FOG       61  61 100 E7        30.04S VSB 1/4
6HR MIN TEMP:  56; 6HR MAX TEMP:  61;

WAUPACA        CLOUDY    66  65  97 CALM      30.04R FOG
6HR MIN TEMP:  62; 6HR MAX TEMP:  66;

WAUTOMA        CLOUDY    64  64 100 NE7       30.04R FOG
6HR MIN TEMP:  62; 6HR MAX TEMP:  66;

WISC RAPIDS    FOG       63  61  93 E8        30.05R VSB 1
6HR MIN TEMP:  62; 6HR MAX TEMP:  67;

CAMP DOUGLAS   MOCLDY    68  68 100 E5        30.01R
6HR MIN TEMP:  67; 6HR MAX TEMP:  69;

$$

WIZ011>013-019>022-031-037>040-048>050-041300-
NORTHEAST WISCONSIN

CITY           SKY/WX    TMP DP  RH WIND       PRES   REMARKS
ANTIGO         CLEAR     56  56 100 NE5       30.06S FOG
SHAWANO        NOT AVBL
OCONTO         CLEAR     62  62 100 NE5       30.02R
6HR MIN TEMP:  62; 6HR MAX TEMP:  64; 6HR PCP:  0.02;

STURGEON BAY   PTCLDY    64  61  88 CALM      30.04R
6HR MIN TEMP:  63; 6HR MAX TEMP:  66;

GREEN BAY      CLOUDY    66  64  93 N5        30.02  FOG
6HR MIN TEMP:  64; 6HR MAX TEMP:  68;

MANITOWOC      CLOUDY    67  66  97 MISG      30.02R
6HR MIN TEMP:  66; 6HR MAX TEMP:  67;

APPLETON       CLOUDY    64  64 100 N6        30.01R FOG
CLINTONVILLE   CLOUDY    63  61  94 N3        30.04R
OSHKOSH        CLOUDY    68  64  87 E6        30.02R
6HR MIN TEMP:  62; 6HR MAX TEMP:  68;

$$

WIZ032>034-041-042-053>061-041300-
SOUTHWEST WISCONSIN

CITY           SKY/WX    TMP DP  RH WIND       PRES   REMARKS
LA CROSSE      CLEAR     69  65  86 S6        29.98R FOG
6HR MIN TEMP:  68; 6HR MAX TEMP:  73;

SPARTA         CLOUDY    68  64  85 CALM      30.01R
6HR MIN TEMP:  68; 6HR MAX TEMP:  69;

VIROQUA          N/A     66  66 100 SE6       30.01R
6HR MIN TEMP:  66; 6HR MAX TEMP:  68;

BOSCOBEL       CLEAR     68  66  93 CALM      29.99R
6HR MIN TEMP:  67; 6HR MAX TEMP:  73;

PRAIRIE DU CHI PTCLDY    69  65  89 E3        29.98R
6HR MIN TEMP:  69; 6HR MAX TEMP:  75;

PLATTEVILLE    PTCLDY    68  67  98 E6        30.00R
6HR MIN TEMP:  68; 6HR MAX TEMP:  71;

$$

WIZ056-057-062-063-064-067-068-041300-
SOUTH CENTRAL WISCONSIN

CITY           SKY/WX    TMP DP  RH WIND       PRES   REMARKS
REEDSBURG      MOCLDY    68  66  93 NE6       30.00S
6HR MIN TEMP:  67; 6HR MAX TEMP:  70;

BARABOO/DELLS  CLOUDY    67  64  90 NE5       30.02R
6HR MIN TEMP:  67; 6HR MAX TEMP:  69;

LONE ROCK      CLEAR     67  64  90 CALM      30.00R
6HR MIN TEMP:  66; 6HR MAX TEMP:  70;

MINERAL POINT  CLEAR     68  66  94 SE5       30.01R FOG
MADISON        PTCLDY    68  65  90 CALM      30.00S
6HR MIN TEMP:  68; 6HR MAX TEMP:  72;

MIDDLETON      CLOUDY    69  68  96 CALM      30.01S
6HR MIN TEMP:  67; 6HR MAX TEMP:  72;

WATERTOWN      PTCLDY    64  64 100 N5        30.01R FOG
6HR MIN TEMP:  64; 6HR MAX TEMP:  70;

MONROE         FOG       64  64 100 E5        30.00S VSB<1/4
JANESVILLE     PTCLDY    66  64  94 CALM      29.99R FOG
$$

WIZ051-052-058>065-066-070>072-041300-
SOUTHEAST WISCONSIN

CITY           SKY/WX    TMP DP  RH WIND       PRES   REMARKS
MILWAUKEE      FOG       65  64  97 N5        30.00R VSB 1/2
6HR MIN TEMP:  64; 6HR MAX TEMP:  68;

WAUKESHA       CLOUDY    63  63 100 NE5       30.02R FOG
MILWAUKEE/TIMM FOG       63  61  94 N6        30.02R VSB 1
RACINE         FOG       64  63  96 N7        30.02R VSB 1/2
6HR MIN TEMP:  64; 6HR MAX TEMP:  67;

BURLINGTON     MOCLDY    64  64  99 CALM      30.00R FOG
6HR MIN TEMP:  63; 6HR MAX TEMP:  66;

KENOSHA        PTCLDY    65  63  93 CALM      30.01R FOG
6HR MIN TEMP:  64; 6HR MAX TEMP:  67;

FOND DU LAC    CLOUDY    67  64  90 E3        30.02S
6HR MIN TEMP:  60; 6HR MAX TEMP:  67;

SHEBOYGAN      CLOUDY    67  65  93 N6        30.01S FOG
6HR MIN TEMP:  60; 6HR MAX TEMP:  67; 6HR PCP: TRACE;

WEST BEND      CLOUDY    63  63 100 CALM      30.01S FOG
JUNEAU         FOG       63  63  99 N7        30.02S VSB 1/2
6HR MIN TEMP:  62; 6HR MAX TEMP:  67;

$$

LSZ147-162-041300-
LAKE SUPERIOR

STATION/POSITION TIME  TEMP    WIND        PRES    WAVE
                       AIR SEA DIR/SP/G            HT/PER
                 (UTC) (F)     (DEG/KT/KT) (MB)    (FT/S)
W MID LAKE BUOY  1150   59 56   90/  8/  8 1016.9R   0
DEVILS ISLAND    1200   61      90/  6/  7 1016.8R
PORT WING        1100   55      60/  8/  9 1015.9S
SAXON HARBOR     1140   55        CALM     1016.3R
$$

LMZ867-665-643>646-041300-
LAKE MICHIGAN

STATION/POSITION TIME  TEMP    WIND        PRES    WAVE
                       AIR SEA DIR/SP/G            HT/PER


USA.gov is the U.S. government's official web portal to all federal, state and local government web resources and services.